Location: Artiguedieu
(43.5000°N, 0.5454°E)
Time: 12:26:01
(UTC+00:00)

Cosmos 1666 Rocket - Pass Details

Date: 06 December 2020
Orbit: 604 x 633 km, 82.5° (Epoch: 27 January)

Event Time Altitude Azimuth Distance (km) Brightness Sun altitude
Rises 05:41:00 0° 191° (S) 2,846 7.0 -16.7°
Reaches altitude 10° 05:43:12 10° 193° (SSW) 1,949 6.2 -16.3°
Maximum altitude 05:47:30 75° 278° (W) 635 3.4 -15.6°
Drops below altitude 10° 05:51:53 10° 5° (N) 1,979 6.0 -14.8°
Sets 05:54:08 0° 7° (N) 2,893 6.9 -14.4°
